Location: Les Coudrans
(46.1056°N, 1.1158°W)
Time: 07:01:28
(UTC+00:00)

Cosmos 2219 Rocket - Pass Details

Date: 03 March 2021
Orbit: 826 x 848 km, 71.0° (Epoch: 18 April)

Event Time Altitude Azimuth Distance (km) Brightness Sun altitude
Rises 19:22:39 0° 178° (S) 3,351 5.2 -16.2°
Reaches altitude 10° 19:25:14 10° 170° (S) 2,424 4.4 -16.6°
Maximum altitude 19:30:14 36° 106° (ESE) 1,299 2.6 -17.5°
Drops below altitude 10° 19:35:17 10° 42° (NE) 2,449 4.3 -18.3°
Sets 19:37:54 0° 34° (NNE) 3,390 5.1 -18.8°
